Location: Narrabri
(30.3170°S, 149.7830°E)
Time: 12:14:39
(UTC+11:00)

Vanguard 2 Rocket - Visible Passes

Search period start: 22 October 2017 00:00
Search period end: 01 November 2017 00:00
Orbit: 555 x 3327 km, 32.9° (Epoch: 21 October)

Date Brightness Start Highest point End Pass type
(mag) Time Alt. Az. Time Alt. Az. Time Alt. Az.
22 Oct 9.3 00:36:11 10° WNW 01:01:55 46° ESE 01:08:42 10° ESE visible
22 Oct 8.4 03:07:39 44° WSW 03:13:18 80° S 03:22:13 10° E visible
22 Oct 7.7 05:16:56 10° WSW 05:28:12 63° NNW 05:34:27 10° NE visible
22 Oct 9.6 21:17:47 10° NNW 21:36:19 48° NE 21:42:57 38° ENE visible
22 Oct 9.5 23:33:49 10° WNW 00:04:46 27° ESE 00:08:57 10° ESE visible
23 Oct 8.7 01:54:00 10° W 02:12:22 80° S 02:23:01 10° E visible
23 Oct 7.9 04:16:10 14° WSW 04:28:28 82° NNW 04:35:55 10° ENE visible
23 Oct 9.9 20:18:10 10° NNW 20:34:43 38° NE 20:49:55 13° E visible
23 Oct 9.2 22:32:06 10° NW 22:52:29 72° NNE 23:08:47 10° ESE visible
24 Oct 8.9 00:51:01 10° W 01:12:56 74° ESE 01:23:32 10° E visible
24 Oct 8.3 03:18:35 28° WSW 03:28:11 87° SSE 03:37:04 10° ENE visible
24 Oct 8.0 05:31:51 10° WSW 05:42:28 44° NW 05:48:38 10° NE visible
24 Oct 10.1 19:19:36 10° N 19:33:27 27° NE 19:48:30 10° E visible
24 Oct 9.4 21:31:10 10° NW 21:50:30 61° NNE 22:04:28 21° E visible
24 Oct 9.1 23:48:24 10° WNW 00:09:09 89° SSW 00:23:44 10° ESE visible
25 Oct 8.7 02:08:59 10° W 02:27:19 82° S 02:37:53 10° E visible
25 Oct 8.0 04:29:25 10° WSW 04:42:59 64° NNW 04:50:25 10° NE visible
25 Oct 9.7 20:31:02 10° NNW 20:48:41 50° NE 21:06:49 10° ESE visible
25 Oct 9.3 22:46:23 10° WNW 23:07:02 84° NNE 23:23:34 10° ESE visible
26 Oct 9.0 01:05:59 10° W 01:25:55 81° S 01:38:24 10° E visible
26 Oct 8.3 03:26:45 10° WSW 03:42:54 81° NNW 03:51:46 10° ENE visible
26 Oct 8.5 05:47:08 10° W 05:56:24 29° NW 06:02:18 10° NNE visible
26 Oct 9.9 19:31:46 10° NNW 19:47:14 38° NE 20:04:40 10° E visible
26 Oct 9.4 21:45:04 10° NW 22:04:49 74° NNE 22:22:58 10° ESE visible
27 Oct 9.2 00:03:15 10° W 00:24:01 83° S 00:38:35 10° E visible
27 Oct 8.6 02:23:53 10° WSW 02:42:11 89° SSE 02:52:43 10° ENE visible
27 Oct 8.3 04:44:19 10° WSW 04:57:10 47° NW 05:04:34 10° NE visible
27 Oct 9.5 20:44:33 10° NW 21:02:45 63° NNE 21:21:50 10° ESE visible
27 Oct 9.3 23:01:01 10° WNW 23:21:46 88° SSW 23:38:22 10° ESE visible
28 Oct 8.9 01:20:58 10° W 01:40:52 83° S 01:53:17 10° E visible
28 Oct 8.3 03:41:32 10° WSW 03:57:21 65° NNW 04:06:13 10° NE visible
28 Oct 9.7 19:44:49 10° NNW 20:01:03 51° NE 20:20:02 10° ESE visible
28 Oct 9.4 21:59:26 10° WNW 22:19:22 85° NNE 22:37:45 10° ESE visible
29 Oct 9.2 00:18:13 10° W 00:38:59 82° S 00:53:28 10° E visible
29 Oct 8.6 02:38:42 10° WSW 02:56:53 80° NNW 03:07:23 10° ENE visible
29 Oct 8.7 04:59:34 10° W 05:11:01 32° NW 05:18:10 10° NNE visible
29 Oct 9.5 20:58:35 10° WNW 21:17:02 75° NNE 21:36:38 10° ESE visible
29 Oct 9.4 23:15:52 10° W 23:36:40 83° S 23:53:14 10° E visible
30 Oct 8.9 01:35:51 10° WSW 01:55:43 90° NNW 02:08:05 10° ENE visible
30 Oct 8.6 03:56:26 10° WSW 04:11:28 49° NW 04:20:17 10° NE visible
30 Oct 9.6 19:58:28 10° NW 20:15:04 64° NNE 20:35:00 10° ESE visible
30 Oct 9.5 22:14:06 10° WNW 22:34:07 87° SSW 22:52:33 10° E visible
31 Oct 9.1 00:33:10 10° W 00:53:57 84° S 01:08:21 10° E visible
31 Oct 8.6 02:53:28 10° WSW 03:11:16 65° NNW 03:21:46 10° NE visible
31 Oct 9.2 05:15:38 10° W 05:24:36 21° NW 05:30:57 10° N visible
31 Oct 9.5 21:13:00 10° WNW 21:31:34 86° NNE 21:51:25 10° ESE visible
